Regional Weather Roundup
Issued by NWS

Home | Current Version | Previous Version | Text Only | Print | Product List | Glossary Off
Versions: 1 2 3 4 5 6 7 8 9 10 11 12 13 14 15 16 17 18 19 20 21 22 23 24 25 26 27 28 29 30 31 32 33 34 35 36 37 38 39 40 41 42 43 44 45 46 47 48 49 50

387
ASUS45 KBOU 230707
RWRCO

WEATHER ROUNDUP FOR COLORADO
NATIONAL WEATHER SERVICE DENVER/BOULDER CO
100 AM MDT THU MAR 23 2017

NOTE: "FAIR" INDICATES FEW OR NO CLOUDS BELOW 12000 FEET WITH NO
SIGNIFICANT WEATHER AND/OR OBSTRUCTIONS TO VISIBILITY.

COZ001>005-013-030-031-230800-
...NORTHWEST COLORADO...

CITY           SKY/WX    TMP DP  RH WIND       PRES   REMARKS
CRAIG          FAIR      41  31  67 CALM      29.81F
HAYDEN         FAIR      45  28  53 S3        29.82S
MEEKER         CLOUDY    48  34  58 MISG      29.81F
MOUNT WERNER   NOT AVBL
STEAMBOAT SPGS FAIR      39  29  67 CALM      29.81F
WALDEN         NOT AVBL
$$

COZ006>008-011-230800-
...WEST CENTRAL VALLEYS...

CITY           SKY/WX    TMP DP  RH WIND       PRES   REMARKS
GRAND JUNCTION FAIR      54  35  48 NE8       29.74F
MONTROSE       MOCLDY    62  21  20 SW31G44   29.79F
EAGLE          FAIR      41  28  60 VRB3      29.85S
RIFLE          CLOUDY    62  26  25 S23G37    29.79S
DELTA          CLOUDY    64  26  23 S18G36    29.80S
NUCLA          FAIR      57  19  23 S16G26    29.84F
$$

COZ017>023-064>068-230800-
...SOUTHWEST COLORADO...

CITY           SKY/WX    TMP DP  RH WIND       PRES   REMARKS
DURANGO        FAIR      43  24  47 N3        29.92F
CORTEZ         CLOUDY    57  21  24 S16       29.87R
PAGOSA SPRINGS FAIR      42  28  57 CALM      29.97F
TELLURIDE      CLOUDY    50  16  25 S24G37    29.95F
WOLF CREEK PAS CLOUDY    32  18  55 S21G32    30.13F WCI  20
$$

COZ009-010-012-014-032>034-037-058>063-230800-
...CENTRAL COLORADO...

CITY           SKY/WX    TMP DP  RH WIND       PRES   REMARKS
ASPEN          CLOUDY    53  20  27 S13G24    29.86F
BUENA VISTA    FAIR      50  22  33 SE12      29.92F
COPPER MTN     FAIR      37  18  44 MISG      30.05F
BERTHOUD PASS  MOCLDY    32  21  64 S15G33    30.10F WCI  22
COTTONWOOD PAS FAIR      46  21  36 SW17G25   30.02F
GUNNISON       FAIR      44  29  55 SE21      29.91F
KREMMLING      FAIR      37  28  70 CALM      29.87F
LEADVILLE      FAIR      41  19  41 S16G28    29.98F
MONARCH PASS   FAIR      32  21  64 SW40G48   30.19F WCI  16
SALIDA         FAIR      55  23  28 S7G16     30.00F
SUNLIGHT       CLOUDY    34  23  64 SW18G35   30.02S WCI  23
WILKERSON PASS FAIR      37  12  35 SW12G24   30.10F
$$

COZ069>075-230800-
...SAN LUIS VALLEY/SANGRE DE CRISTO MOUNTAINS...

CITY           SKY/WX    TMP DP  RH WIND       PRES   REMARKS
ALAMOSA        FAIR      47  25  42 S9        29.94F
LA VETA PASS   NOT AVBL
SAGUACHE       FAIR      46  23  39 NW9       29.95F
$$

COZ035-036-038>040-230800-
...NORTHERN COLORADO FRONT RANGE...

CITY           SKY/WX    TMP DP  RH WIND       PRES   REMARKS
DENVER INTL AP FAIR      51  36  56 S15       29.77F
DMNS CITY PARK   N/A     53  29  39 SE9       29.77S
AURORA         MOCLDY    56  37  50 S17       29.78F
FRONT RANGE AP FAIR      54  37  54 S13G20    29.79S
ERIE MUNI ARPT FAIR      46  31  56 NW5       29.75F
BOULDER MUN AP FAIR      52  28  40 W6        29.74F
CENTENNIAL     FAIR      53  36  52 S14       29.80F
BROOMFIELD     FAIR      54  28  37 SW5       29.78F
FORT COLLINS   FAIR      49  36  61 CALM      29.76S
LONGMONT       FAIR      47  33  60 NW6       29.76F
$$

COZ041-046-047-076>085-087-088-230800-
...PIKES PEAK/PALMER DIVIDE AND SOUTHERN FOOTHILLS...

CITY           SKY/WX    TMP DP  RH WIND       PRES   REMARKS
COLO. SPRINGS  FAIR      42  34  73 NE12      29.85F
A. F. ACADEMY  FAIR      36  30  78 NW9       29.86F
SCHRIEVER AFB  FAIR      45  36  69 NW8       29.87F
ELLICOTT         N/A    N/A N/A N/A SE9       29.85F
FALCON         FAIR      40  34  78 CALM      29.89F
FORT CARSON    CLEAR     43  30  61 NW6       29.85
LIMON          FAIR      43  40  89 SE10      29.84F
MONUMENT HILL  FAIR      41  34  75 SW6       29.88F
TRINIDAD       FAIR      62  41  46 S37G46    29.83F
$$

COZ042>045-048>051-090-091-230800-
...NORTHEAST COLORADO...

CITY           SKY/WX    TMP DP  RH WIND       PRES   REMARKS
GREELEY ARPT   FAIR      51  39  63 SE10      29.76F
AKRON          FAIR      41  35  79 SE10      29.78F
BURLINGTON     FAIR      47  40  76 S22       29.85F
WRAY           NOT AVBL
STERLING       FAIR      45  37  76 SE7       29.78F
HOLYOKE        FAIR      41  34  75 SE9       29.83F
FORT MORGAN    FAIR      40  33  77 NE7       29.77F
$$

COZ086-089-092>099-230800-
...SOUTHEAST COLORADO...

CITY           SKY/WX    TMP DP  RH WIND       PRES   REMARKS
PUEBLO         FAIR      45  30  55 SE3       29.79F
LA JUNTA       FAIR      61  44  53 SE7       29.80F
LAMAR          FAIR      52  43  71 NE9       29.82F
SPRINGFIELD      N/A     52  46  80 S9        29.90F
$$




USA.gov is the U.S. government's official web portal to all federal, state and local government web resources and services.